Location: Alpha Ridge Park
(39.3209°N, 76.9128°W)
Time: 00:09:50
(UTC-04:00)

Transit 4A - All Passes

Search period start: 25 May 2019 00:00
Search period end: 04 June 2019 00:00
Orbit: 862 x 983 km, 66.8° (Epoch: 24 May)

Date Brightness Start Highest point End Pass type
(mag) Time Alt. Az. Time Alt. Az. Time Alt. Az.
25 May - 01:21:34 10° NW 01:27:45 52° WSW 01:33:47 10° S visible
25 May - 14:40:57 10° S 14:46:41 43° ESE 14:52:36 10° NE daylight
25 May - 16:27:34 10° WSW 16:33:09 34° NW 16:38:54 10° NNE daylight
25 May - 23:44:38 10° NNW 23:50:41 41° NE 23:56:36 10° ESE visible
26 May - 01:31:15 10° NW 01:36:57 35° WSW 01:42:31 10° S visible
26 May - 14:49:50 10° SSW 14:55:55 64° ESE 15:02:12 10° NE daylight
26 May - 16:37:47 10° W 16:42:48 25° NW 16:47:56 10° N daylight
26 May - 22:09:27 10° N 22:12:21 13° NE 22:15:14 10° ENE visible
26 May - 23:53:50 10° NNW 00:00:10 59° ENE 00:06:22 10° SE visible
27 May - 01:41:12 10° NW 01:46:03 23° WSW 01:50:48 10° SSW visible
27 May - 13:16:51 10° SE 13:19:47 14° E 13:22:46 10° ENE daylight
27 May - 14:59:02 10° SSW 15:05:13 87° WNW 15:11:38 10° NNE daylight
27 May - 16:48:22 10° W 16:52:33 18° NW 16:56:48 10° N daylight
27 May - 22:18:00 10° N 22:22:13 18° NE 22:26:22 10° E visible
28 May - 00:03:08 10° NNW 00:09:35 84° ENE 00:15:52 10° SSE visible
28 May - 01:51:45 10° WNW 01:55:04 15° WSW 01:58:22 10° SW visible
28 May - 13:24:15 10° SSE 13:28:48 22° ESE 13:33:26 10° ENE daylight
28 May - 15:08:30 10° SW 15:14:37 61° WNW 15:20:56 10° NNE daylight
28 May - 16:59:26 10° WNW 17:02:24 13° NW 17:05:23 10° N daylight
28 May - 22:26:51 10° N 22:31:58 24° NE 22:36:59 10° E visible
29 May - 00:12:32 10° NW 00:18:54 67° WSW 00:25:06 10° SSE visible
29 May - 13:32:29 10° S 13:37:53 33° ESE 13:43:27 10° NE daylight
29 May - 15:18:14 10° SW 15:24:06 42° NW 15:30:09 10° NNE daylight
29 May - 22:35:52 10° NNW 22:41:37 33° NE 22:47:14 10° ESE visible
30 May - 00:22:06 10° NW 00:28:08 45° WSW 00:34:02 10° S visible
30 May - 13:41:08 10° S 13:47:04 50° ESE 13:53:10 10° NE daylight
30 May - 15:28:16 10° WSW 15:33:41 30° NW 15:39:14 10° N daylight
30 May - 21:01:34 10° NNE 21:03:04 11° NNE 21:04:32 10° NE visible
30 May - 22:45:01 10° NNW 22:51:10 46° NE 22:57:11 10° SE visible
31 May - 00:31:52 10° NW 00:37:17 30° WSW 00:42:36 10° SSW visible
31 May - 13:50:09 10° SSW 13:56:18 74° ESE 14:02:41 10° NNE daylight
31 May - 15:38:36 10° W 15:43:22 22° NW 15:48:13 10° N daylight
31 May - 21:09:33 10° N 21:12:59 15° NE 21:16:23 10° ENE visible
31 May - 22:54:14 10° NNW 23:00:38 67° ENE 23:06:52 10° SE visible
01 Jun - 00:41:59 10° WNW 00:46:22 20° WSW 00:50:41 10° SSW visible
01 Jun - 12:16:24 10° SE 12:20:05 16° ESE 12:23:49 10° ENE daylight
01 Jun - 13:59:27 10° SSW 14:05:39 77° WNW 14:12:04 10° NNE daylight
01 Jun - 15:49:20 10° WNW 15:53:09 16° NW 15:57:00 10° N daylight
01 Jun - 21:18:14 10° N 21:22:48 20° NE 21:27:18 10° E visible
01 Jun - 23:03:34 10° NNW 23:10:01 85° WSW 23:16:16 10° SSE visible
02 Jun - 00:53:01 10° WNW 00:55:22 12° W 00:57:42 10° WSW visible
02 Jun - 12:24:11 10° SSE 12:29:07 26° ESE 12:34:10 10° NE daylight
02 Jun - 14:09:01 10° SW 14:15:05 53° WNW 14:21:20 10° NNE daylight
02 Jun - 16:00:42 10° WNW 16:03:02 12° NW 16:05:23 10° NNW daylight
02 Jun - 21:27:10 10° N 21:32:31 27° NE 21:37:47 10° ESE visible
02 Jun - 23:13:02 10° NW 23:19:18 58° WSW 23:25:23 10° S visible
03 Jun - 12:32:36 10° S 12:38:15 38° ESE 12:44:03 10° NE daylight
03 Jun - 14:18:52 10° WSW 14:24:36 37° NW 14:30:30 10° NNE daylight
03 Jun - 21:36:13 10° NNW 21:42:08 37° NE 21:47:55 10° ESE visible
03 Jun - 23:22:40 10° NW 23:28:30 39° WSW 23:34:12 10° S visible
